Regional Weather Roundup
Issued by NWS

Home | Current Version | Previous Version | Graphics & Text | Print | Product List | Glossary On
Versions: 1 2 3 4 5 6 7 8 9 10 11 12 13 14 15 16 17 18 19 20 21 22 23 24 25 26 27 28 29 30 31 32 33 34 35 36 37 38 39 40 41 42 43 44 45 46 47 48 49 50
000
ASUS43 KOAX 220402
RWRNE

WEATHER ROUNDUP FOR NEBRASKA
NATIONAL WEATHER SERVICE OMAHA NE
1100 PM CDT THU AUG 21 2014

NOTES: SATELLITE DATA IS BEING USED TO AUGMENT CLOUD COVER ABOVE
       12000 FEET.
       "FAIR" INDICATES FEW OR NO CLOUDS BELOW 12,000 FEET WITH NO
       SIGNIFICANT WEATHER AND/OR OBSTRUCTIONS TO VISIBILITY.

  * THESE STATIONS DO NOT REPORT WEATHER SUCH AS RAIN...SNOW OR FOG.

NEZ001>004-019>022-054>056-220500-
NEBRASKA PANHANDLE

CITY           SKY/WX    TMP DP  RH WIND       PRES   REMARKS
SCOTTSBLUFF    PTCLDY    68  54  60 NW3       30.04R
ALLIANCE       PTCLDY    66  51  58 SE8       30.02R
CHADRON        PTCLDY    72  53  51 W6        29.95R
KIMBALL        CLOUDY    68  52  56 S6        30.10R
SIDNEY         PTCLDY    66  56  70 SW6       30.07R
$$

NEZ057>060-069>072-079>082-220500-
SOUTHWEST NEBRASKA

CITY           SKY/WX    TMP DP  RH WIND       PRES   REMARKS
NORTH PLATTE   CLEAR     68  62  81 SE5       29.97R
IMPERIAL       CLEAR     70  60  70 E7        29.99R
LEXINGTON      PTCLDY    74  71  89 CALM      29.93F
MCCOOK         CLEAR     73  65  75 E6        29.93F
OGALLALA       CLEAR     70  62  76 E5        30.00S
$$

NEZ005>010-023>029-035>040-094-220500-
NORTH CENTRAL NEBRASKA

CITY           SKY/WX    TMP DP  RH WIND       PRES   REMARKS
VALENTINE      MOCLDY    72  59  63 E6        29.96R
AINSWORTH      PTCLDY    70  64  79 E5        29.97S
BROKEN BOW     CLEAR     73  65  75 E8        29.94F
O`NEILL        MOCLDY    72  67  83 N5        29.93F
ORD            PTCLDY    72  68  87 CALM      29.91F
THEDFORD       PTCLDY    73  62  69 SE3       29.99S
$$

NEZ041-046>049-061>064-073>077-083>087-220500-
SOUTH CENTRAL NEBRASKA

CITY           SKY/WX    TMP DP  RH WIND       PRES   REMARKS
GRAND ISLAND   PTCLDY    75  72  90 SW5       29.90F
AURORA         MOCLDY    72  71  95 SE13      29.90R
HASTINGS       CLOUDY    76  65  68 MISG      29.91R
HEBRON         CLOUDY    78  68  72 CALM      29.90R
HOLDREGE       PTCLDY    74  72  91 CALM      29.93R
KEARNEY *      PTCLDY    75  72  88 NE5       29.92S
YORK           CLOUDY    72 N/A N/A SE7       29.90S
$$

NEZ011>018-030>034-042>045-220500-
NORTHEAST NEBRASKA

CITY           SKY/WX    TMP DP  RH WIND       PRES   REMARKS
NORFOLK        PTCLDY    76  72  87 CALM      29.90R
ALBION         MOCLDY    76  71  84 CALM      29.92R
BLAIR          CLOUDY    80  74  80 CALM      29.88R
FREMONT        CLOUDY    79  69  71 W17G36    29.92R
TEKAMAH        MOCLDY    76  72  87 CALM      29.87R
WAYNE          PTCLDY    74  73  96 CALM      29.90R
$$

NEZ050>053-065>068-078-088>093-220500-
SOUTHEAST NEBRASKA

CITY           SKY/WX    TMP DP  RH WIND       PRES   REMARKS
LINCOLN        CLOUDY    83  73  72 SW6       29.89R
OMAHA EPPLEY   CLOUDY    82  75  79 CALM      29.85S
BEATRICE       CLOUDY    78  76  94 NW6       29.88R
FALLS CITY     CLOUDY    85  72  65 SW5       29.84S HX  91
NEBRASKA CITY  CLOUDY    78  78 100 NE3       29.86R
PLATTSMOUTH    CLOUDY    80  75  85 E3        29.86S
$$

NEZ044-045-051>053-067-220500-
OMAHA AREA

CITY           SKY/WX    TMP DP  RH WIND       PRES   REMARKS
OMAHA EPPLEY   CLOUDY    82  75  79 CALM      29.85S
BLAIR          CLOUDY    80  74  80 CALM      29.88R
FREMONT        CLOUDY    79  69  71 W17G36    29.92R
MILLARD        CLOUDY    83  75  77 CALM      29.85S HX  91
OFFUTT AFB     CLOUDY    80  80  99 N3        29.85S
PLATTSMOUTH    CLOUDY    80  75  85 E3        29.86S
WAHOO          CLOUDY    80  72  75 NW14G20   29.90R
$$



USA.gov is the U.S. government's official web portal to all federal, state and local government web resources and services.